Date String (YYYY-MM-DD hh:mm:ss) UTC,Instrument flags,Ambient pressure (hPa),Sample flow (lpm),Bypass flow (lpm),Sample temperature (°C),Ambient temperature (°C),ASC tube jacket temperature (°C),LED temperature (°C),Box temperature (°C),Sample RH (%),Span deviation,Mass concentration (μg/m³),Mass concentration (μg/m³),Mass concentration (μg/m³)
DateTimeUTC,F1_M11,P_M11,Q1_M11,Q2_M11,T1_M11,T2_M11,T3_M11,T4_M11,T5_M11,U1_M11,ZSPAN_M11,X0_M11,X2_M11,X1_M11
2021-10-20 10:00:00,,0829.1,5.01,0.00,24.3,23.5,00.0,33.4,26.2,18.8,0000.0,0007.81,0003.77,0003.44
2021-10-20 10:01:00,,0829.3,5.00,0.00,24.4,23.5,00.0,33.4,26.2,18.7,0000.0,0008.01,0003.80,0003.47
2021-10-20 10:02:00,,0829.3,4.99,0.00,24.4,23.5,00.0,33.4,26.2,18.7,0000.0,0008.05,0003.83,0003.50
2021-10-20 10:03:00,,0829.2,5.01,0.00,24.3,23.5,00.0,33.4,26.2,18.7,0000.0,0007.93,0003.82,0003.51
2021-10-20 10:04:00,,0829.3,5.01,0.00,24.3,23.5,00.0,33.4,26.2,18.7,0000.0,0007.86,0003.86,0003.54
2021-10-20 10:05:00,,0829.2,4.99,0.00,24.3,23.5,00.0,33.4,26.1,18.7,0000.0,0007.99,0003.92,0003.57
2021-10-20 10:06:00,,0829.2,5.01,0.00,24.3,23.5,00.0,33.4,26.1,18.8,0000.0,0008.12,0003.96,0003.61
2021-10-20 10:07:00,,0829.3,5.00,0.00,24.3,23.4,00.0,33.4,26.1,18.8,0000.0,0008.88,0004.02,0003.65
2021-10-20 10:08:00,,0829.3,5.00,0.00,24.3,23.4,00.0,33.4,26.1,18.8,0000.0,0009.05,0004.04,0003.67
2021-10-20 10:09:00,,0829.2,4.99,0.00,24.3,23.4,00.0,33.4,26.1,18.8,0000.0,0008.42,0004.07,0003.70
2021-10-20 10:10:00,,0829.2,5.01,0.00,24.2,23.4,00.0,33.4,26.1,18.9,0000.0,0008.03,0004.11,0003.74
2021-10-20 10:11:00,,0829.2,4.99,0.00,24.2,23.3,00.0,33.4,26.1,18.9,0000.0,0008.01,0004.14,0003.77
2021-10-20 10:12:00,,0829.2,5.01,0.00,24.2,23.3,00.0,33.4,26.0,19.0,0000.0,0008.28,0004.20,0003.82
2021-10-20 10:13:00,,0829.2,5.00,0.00,24.2,23.3,00.0,33.3,26.0,19.0,0000.0,0008.83,0004.26,0003.87
2021-10-20 10:14:00,,0829.3,5.00,0.00,24.1,23.3,00.0,33.3,25.9,19.1,0000.0,0009.20,0004.33,0003.91
2021-10-20 10:15:00,,0829.3,4.99,0.00,24.1,23.3,00.0,33.3,25.9,19.1,0000.0,0009.47,0004.38,0003.94
2021-10-20 10:16:00,,0829.4,5.00,0.00,24.1,23.2,00.0,33.3,25.9,19.2,0000.0,0009.71,0004.40,0003.98
2021-10-20 10:17:00,,0829.4,5.00,0.00,24.1,23.2,00.0,33.3,25.9,19.2,0000.0,0009.59,0004.41,0004.00
2021-10-20 10:18:00,,0829.5,5.01,0.00,24.0,23.1,00.0,33.2,25.7,19.3,0000.0,0009.07,0004.41,0004.01
2021-10-20 10:19:00,,0829.5,5.00,0.00,24.0,23.1,00.0,33.2,25.7,19.4,0000.0,0008.74,0004.41,0004.03
2021-10-20 10:20:00,,0829.5,4.99,0.00,23.9,23.1,00.0,33.2,25.6,19.4,0000.0,0008.69,0004.42,0004.05
2021-10-20 10:21:00,,0829.5,5.00,0.00,23.9,23.0,00.0,33.2,25.6,19.5,0000.0,0008.73,0004.42,0004.06
2021-10-20 10:22:00,,0829.5,5.00,0.00,23.9,23.0,00.0,33.2,25.6,19.5,0000.0,0008.68,0004.41,0004.07
2021-10-20 10:23:00,,0829.6,5.01,0.00,23.8,23.0,00.0,33.1,25.5,19.5,0000.0,0008.48,0004.41,0004.06
2021-10-20 10:24:00,,0829.6,5.01,0.00,23.8,22.9,00.0,33.1,25.5,19.6,0000.0,0007.85,0004.39,0004.05
2021-10-20 10:25:00,,0829.6,5.00,0.00,23.8,22.9,00.0,33.1,25.5,19.6,0000.0,0007.49,0004.36,0004.03
2021-10-20 10:26:00,,0829.5,5.00,0.00,23.8,22.9,00.0,33.1,25.5,19.7,0000.0,0007.13,0004.31,0004.01
2021-10-20 10:27:00,,0829.5,5.00,0.00,23.7,22.9,00.0,33.0,25.5,19.7,0000.0,0006.49,0004.27,0003.99
2021-10-20 10:28:00,,0829.5,5.00,0.00,23.7,22.9,00.0,33.0,25.5,19.7,0000.0,0006.42,0004.25,0003.97
2021-10-20 10:29:00,,0829.5,5.00,0.00,23.7,22.9,00.0,33.0,25.5,19.7,0000.0,0006.44,0004.24,0003.95
2021-10-20 10:30:00,,0829.5,4.99,0.00,23.7,22.9,00.0,33.0,25.5,19.7,0000.0,0007.28,0004.25,0003.94
2021-10-20 10:31:00,,0829.5,5.01,0.00,23.7,22.9,00.0,33.0,25.5,19.7,0000.0,0007.44,0004.25,0003.93
2021-10-20 10:32:00,,0829.5,5.00,0.00,23.7,22.9,00.0,32.9,25.5,19.7,0000.0,0007.44,0004.26,0003.92
2021-10-20 10:33:00,,0829.6,5.00,0.00,23.7,22.9,00.0,32.9,25.5,19.7,0000.0,0007.44,0004.24,0003.90
2021-10-20 10:34:00,,0829.6,5.01,0.00,23.7,22.9,00.0,32.9,25.4,19.8,0000.0,0007.41,0004.20,0003.88
2021-10-20 10:35:00,,0829.6,4.99,0.00,23.6,22.8,00.0,32.9,25.4,19.8,0000.0,0007.35,0004.17,0003.86
2021-10-20 10:36:00,,0829.6,4.99,0.00,23.6,22.8,00.0,32.9,25.3,19.8,0000.0,0007.43,0004.20,0003.87
2021-10-20 10:37:00,,0829.6,5.01,0.00,23.6,22.8,00.0,32.9,25.4,19.7,0000.0,0007.50,0004.22,0003.88
2021-10-20 10:38:00,,0829.6,4.99,0.00,23.6,22.8,00.0,32.8,25.3,19.7,0000.0,0007.75,0004.21,0003.88
2021-10-20 10:39:00,,0829.6,5.01,0.00,23.6,22.8,00.0,32.8,25.3,19.8,0000.0,0007.73,0004.21,0003.88
2021-10-20 10:40:00,,0829.6,5.00,0.00,23.5,22.7,00.0,32.8,25.3,19.8,0000.0,0007.73,0004.20,0003.88
2021-10-20 10:41:00,,0829.6,4.99,0.00,23.5,22.7,00.0,32.8,25.2,19.9,0000.0,0007.24,0004.20,0003.89
2021-10-20 10:42:00,,0829.6,5.00,0.00,23.5,22.7,00.0,32.8,25.3,19.9,0000.0,0007.18,0004.22,0003.91
2021-10-20 10:43:00,,0829.6,5.01,0.00,23.5,22.7,00.0,32.8,25.3,19.9,0000.0,0007.07,0004.20,0003.91
2021-10-20 10:44:00,,0829.6,4.99,0.00,23.5,22.7,00.0,32.7,25.2,19.9,0000.0,0007.25,0004.22,0003.94
2021-10-20 10:45:00,,0829.6,5.01,0.00,23.5,22.8,00.0,32.7,25.3,19.8,0000.0,0007.41,0004.25,0003.96
2021-10-20 10:46:00,,0829.8,5.00,0.00,23.5,22.8,00.0,32.7,25.3,19.8,0000.0,0007.38,0004.25,0003.98
2021-10-20 10:47:00,,0829.7,4.99,0.00,23.6,22.8,00.0,32.7,25.3,19.8,0000.0,0007.26,0004.21,0003.98
2021-10-20 10:48:00,,0829.6,5.01,0.00,23.5,22.8,00.0,32.7,25.3,19.8,0000.0,0007.34,0004.23,0003.99
2021-10-20 10:49:00,,0829.7,5.01,0.00,23.5,22.8,00.0,32.7,25.3,19.8,0000.0,0006.94,0004.22,0003.98
2021-10-20 10:50:00,,0829.8,5.00,0.00,23.5,22.7,00.0,32.7,25.2,19.9,0000.0,0006.99,0004.23,0003.98
2021-10-20 10:51:00,,0829.8,5.01,0.00,23.5,22.7,00.0,32.7,25.2,19.9,0000.0,0006.94,0004.24,0004.00
2021-10-20 10:52:00,,0829.8,5.00,0.00,23.5,22.7,00.0,32.6,25.2,19.9,0000.0,0007.64,0004.20,0003.98
2021-10-20 10:53:00,,0829.8,4.99,0.00,23.4,22.7,00.0,32.6,25.2,19.9,0000.0,0007.79,0004.17,0003.95
2021-10-20 10:54:00,,0829.8,5.00,0.00,23.4,22.7,00.0,32.6,25.2,19.9,0000.0,0007.82,0004.16,0003.93
2021-10-20 10:55:00,,0829.7,5.00,0.00,23.4,22.7,00.0,32.6,25.2,19.9,0000.0,0007.73,0004.12,0003.90
2021-10-20 10:56:00,,0829.8,5.00,0.00,23.4,22.6,00.0,32.6,25.1,19.9,0000.0,0007.82,0004.11,0003.87
2021-10-20 10:57:00,,0829.8,5.01,0.00,23.4,22.6,00.0,32.6,25.1,19.9,0000.0,0007.82,0004.10,0003.85
2021-10-20 10:58:00,,0829.8,4.99,0.00,23.4,22.6,00.0,32.6,25.1,19.9,0000.0,0007.81,0004.09,0003.83
2021-10-20 10:59:00,,0829.8,5.00,0.00,23.4,22.6,00.0,32.6,25.1,19.9,0000.0,0007.69,0004.07,0003.82
